Tegucigalpa, Honduras

4:26 PM CST on August 25, 2016 (GMT -0600)
Toncontin International

Weather History for MHTG - January, 2013

Change the Weather History Date:

Monday, January 14, 2013

  Actual Average Record
Temperature  
Mean Temperature 66 °F -  
Max Temperature 82 °F 78 °F 86 °F (2016)
Min Temperature 50 °F 57 °F 35 °F (2005)
Cooling Degree Days 1    
Growing Degree Days 16 (Base 50)    
Moisture  
Dew Point 57 °F    
Average Humidity 76    
Maximum Humidity 100    
Minimum Humidity 36    
Precipitation  
Precipitation 0.00 in 0.01 in - ()
Sea Level Pressure  
Sea Level Pressure 30.05 in    
Wind  
Wind Speed 2 mph ()    
Max Wind Speed 12 mph    
Max Gust Speed -    
Visibility 6.5 miles    
Events      
Averages and records for this station are not official NWS values.
T = Trace of Precipitation, MM = Missing Value Source: Averaged Metar Reports

Daily Weather History Graph

Daily Weather History Graph

Search for Another Location

Airport or City:

Trip Planner

Search our weather history database for the weather conditions in past years. The results will help you decide how hot, cold, wet, or windy it might be!

Date:

Astronomy

Jan. 14, 2013 Rise Set
Actual Time 6:16 AM CST 5:39 PM CST
Civil Twilight 5:53 AM CST 6:02 PM CST
Nautical Twilight 5:27 AM CST 6:28 PM CST
Astronomical Twilight 5:01 AM CST 6:54 PM CST
Moon 8:27 AM CST (1/14) 8:41 PM CST (1/14)
Length of Visible Light 12h 08m
Length of Day
11h 23m
Waxing Crescent, 11% of the Moon is Illuminated
Jan 14
Waxing Crescent
Jan 18
First Quarter
Jan 26
Full
Feb 3
Last Quarter
Feb 10
New

Hourly Weather History & Observations

Time (CST) Temp. Heat Index Dew Point Humidity Pressure Visibility Wind Dir Wind Speed Gust Speed Precip Events Conditions
12:00 AM 59 °F - 57 °F 90% 30.00 in 6 mi Calm Calm - -   Haze
1:00 AM 55.4 °F - 55.4 °F 100% 30.09 in 6.2 mi Calm Calm - N/A   Partly Cloudy
2:00 AM 55.4 °F - 55.4 °F 100% 30.06 in 6.2 mi Calm Calm - N/A   Partly Cloudy
3:00 AM 54 °F - 54 °F 99% 30.02 in 12 mi Calm Calm - -   Mist
3:00 AM 53.6 °F - 53.6 °F 100% 30.06 in 6.2 mi Calm Calm - N/A   Partly Cloudy
4:00 AM 53.6 °F - 53.6 °F 100% 30.06 in 6.2 mi Calm Calm - N/A   Clear
5:00 AM 51.8 °F - 51.8 °F 100% 30.09 in 6.2 mi Calm Calm - N/A   Clear
6:00 AM 51 °F - 51 °F 98% 30.08 in 6 mi Calm Calm - -   Mist
6:00 AM 50.0 °F - 50.0 °F 100% 30.09 in 6.2 mi Calm Calm - N/A   Scattered Clouds
7:00 AM 53.6 °F - 53.6 °F 100% 30.12 in 6.2 mi Calm Calm - N/A   Mostly Cloudy
8:00 AM 57.2 °F - 55.4 °F 94% 30.12 in 5.0 mi Calm Calm - N/A   Mostly Cloudy
9:00 AM 60 °F - 57 °F 85% 30.06 in 4 mi Calm Calm - -   Mostly Cloudy
9:00 AM 60.8 °F - 57.2 °F 88% 30.15 in 4.3 mi Calm Calm - N/A   Mostly Cloudy
10:00 AM 66.2 °F - 60.8 °F 83% 30.15 in 6.2 mi NNE 4.6 mph - N/A   Mostly Cloudy
11:00 AM 73.4 °F - 62.6 °F 69% 30.12 in 6.2 mi NNE 9.2 mph - N/A   Scattered Clouds
12:00 PM 78 °F - 62 °F 48% 29.88 in 9 mi North 9.2 mph - -   Haze
12:00 PM 78.8 °F - 62.6 °F 57% 30.09 in 6.2 mi North 9.2 mph - N/A   Scattered Clouds
1:00 PM 80.6 °F 81.1 °F 59.0 °F 48% 30.06 in 6.2 mi NNE 11.5 mph - N/A   Scattered Clouds
2:00 PM 80.6 °F 80.8 °F 57.2 °F 45% 30.04 in 6.2 mi East 9.2 mph - N/A   Scattered Clouds
3:00 PM 79 °F - 57 °F 36% 29.82 in 10 mi NE 6.9 mph - -   Haze
3:00 PM 78.8 °F - 57.2 °F 47% 30.04 in 6.2 mi NE 6.9 mph - N/A   Scattered Clouds
4:00 PM 82.4 °F 82.5 °F 59.0 °F 45% 30.04 in 6.2 mi North 9.2 mph - N/A   Scattered Clouds
5:00 PM 77.0 °F - 59.0 °F 54% 30.06 in 6.2 mi NE 4.6 mph - N/A   Scattered Clouds
6:00 PM 74 °F - 60 °F 53% 29.88 in 10 mi NE 6.9 mph - -   Haze
6:00 PM 73.4 °F - 60.8 °F 65% 30.06 in 6.2 mi NE 6.9 mph - N/A   Mostly Cloudy
7:00 PM 71.6 °F - 60.8 °F 69% 30.09 in 6.2 mi NE 6.9 mph - N/A   Scattered Clouds
8:00 PM 68.0 °F - 59.0 °F 73% 30.09 in 6.2 mi East 4.6 mph - N/A   Partly Cloudy
9:00 PM 67 °F - 59 °F 68% 29.91 in 6 mi ENE 4.6 mph - -   Haze
9:00 PM 66.2 °F - 59.0 °F 78% 30.09 in 6.2 mi ENE 4.6 mph - N/A   Partly Cloudy
10:00 PM 64.4 °F - 59.0 °F 83% 30.09 in 6.2 mi SSW 3.5 mph - N/A   Partly Cloudy
11:00 PM 62.6 °F - 57.2 °F 82% 30.09 in 6.2 mi WSW 3.5 mph - N/A   Partly Cloudy